Location: Bodham
(52.9000°N, 1.1667°E)
Time: 15:06:16
(UTC+00:00)

Cosmos 2112 Rocket - Pass Details

Date: 13 October 2025
Orbit: 753 x 782 km, 74.0° (Epoch: 13 November)

Event Time Altitude Azimuth Distance (km) Brightness Sun altitude
Rises 04:20:17 0° 336° (NNW) 3,260 7.1 -18.5°
Reaches altitude 10° 04:23:17 10° 353° (N) 2,323 6.5 -18.0°
Maximum altitude 04:27:12 21° 41° (NE) 1,690 6.4 -17.4°
Drops below altitude 10° 04:31:06 10° 90° (E) 2,300 7.8 -16.9°
Sets 04:34:02 0° 107° (ESE) 3,217 8.4 -16.4°
